FW6364 Weather Reports


time (UTC)temp
F
wind
direction
speed
knots
gust
knots
rain 1hr
in
rain 24hr
in
rain mn
in
humidity
%
barometer
mb
20260510094535 43 360 0.9 4.3 0.00 0.12 0.00 82 1009.2
20260510093031 44 283 0.0 3.5 0.00 0.12 0.00 82 1009.0
20260510091547 44 277 1.7 4.3 0.00 0.12 0.00 84 1008.9
20260510090028 44 273 1.7 3.5 0.00 0.12 0.00 85 1008.6
20260510084526 44 360 0.9 1.7 0.00 0.12 0.00 85 1008.6
20260510083021 44 360 0.9 3.5 0.00 0.12 0.00 85 1008.4
20260510081532 44 282 0.9 2.6 0.00 0.12 0.00 85 1008.4
20260510080022 45 360 1.7 5.2 0.00 0.12 0.00 85 1008.1
20260510074515 46 360 1.7 4.3 0.00 0.12 0.00 86 1008.1
20260510073022 46 271 0.9 2.6 0.00 0.12 0.00 88 1007.9
20260510071515 46 279 0.0 0.0 0.00 0.12 0.00 88 1007.8
20260510070014 46 279 0.0 1.7 0.00 0.12 0.00 89 1007.6
20260510064536 46 290 0.0 3.5 0.00 0.12 0.00 89 1007.7
20260510063015 45 267 0.9 1.7 0.00 0.12 0.00 89 1007.4
20260510061507 45 265 0.0 2.6 0.00 0.12 0.00 89 1007.3
20260510060018 45 262 0.0 1.7 0.00 0.12 0.00 88 1007.1
20260510054504 46 264 0.0 2.6 0.00 0.12 0.00 88 1006.9
20260510053004 46 283 1.7 4.3 0.00 0.12 0.00 88 1007.0
20260510051609 46 278 1.7 5.2 0.00 0.12 0.00 88 1006.8
20260510044608 47 360 1.7 7.0 0.00 0.12 0.00 88 1005.9
20260510043054 47 360 2.6 7.0 0.00 0.12 0.00 89 1006.3
20260510041604 47 360 1.7 7.8 0.00 0.12 0.00 89 1005.9
20260510040048 46 360 2.6 7.0 0.00 0.12 0.12 89 1006.0
20260510034556 46 360 1.7 5.2 0.00 0.12 0.12 89 1005.9
20260510033049 46 360 1.7 5.2 0.00 0.12 0.12 89 1005.6
20260510031551 47 360 1.7 7.8 0.00 0.12 0.12 89 1005.6
20260510030055 47 360 1.7 5.2 0.00 0.12 0.12 90 1005.4
20260510024550 47 360 1.7 5.2 0.00 0.12 0.12 90 1005.1
20260510023044 47 360 1.7 7.0 0.00 0.12 0.12 89 1005.5
20260510021544 48 360 2.6 8.7 0.00 0.12 0.12 89 1005.5
20260510020044 48 360 2.6 7.0 0.00 0.12 0.12 89 1005.3
20260510014543 48 360 2.6 7.0 0.01 0.12 0.12 89 1005.1
20260510013051 48 360 1.7 5.2 0.02 0.12 0.12 90 1005.0
20260510011545 47 216 1.7 4.3 0.08 0.12 0.12 90 1004.6
20260510010042 48 360 1.7 7.0 0.12 0.12 0.12 89 1004.5
20260510004540 49 360 3.5 7.8 0.11 0.11 0.11 88 1004.3
20260510003052 50 219 2.6 7.0 0.10 0.10 0.10 88 1004.1
20260510001538 50 360 7.0 13.9 0.03 0.03 0.03 83 1005.0
20260510000037 50 360 1.7 7.8 0.00 0.00 0.00 79 1002.7
20260509234554 51 144 1.7 4.3 0.00 0.00 0.00 78 1002.5
20260509233042 50 136 0.9 3.5 0.00 0.00 0.00 81 1002.6
20260509231542 51 152 3.5 7.8 0.00 0.00 0.00 80 1002.8
20260509230032 52 360 1.7 5.2 0.00 0.00 0.00 79 1003.0
20260509224532 53 360 1.7 7.0 0.00 0.00 0.00 77 1003.2
20260509223032 56 360 0.9 3.5 0.00 0.00 0.00 75 1003.9
20260509221527 57 360 0.9 3.5 0.00 0.00 0.00 74 1004.1
20260509220029 57 151 0.9 4.3 0.00 0.00 0.00 74 1003.8
20260509214525 58 360 0.9 4.3 0.00 0.00 0.00 73 1003.7
20260509213025 58 90 1.7 5.2 0.00 0.00 0.00 72 1003.8
20260509211524 58 130 1.7 5.2 0.00 0.00 0.00 72 1003.8
20260509210026 59 360 1.7 5.2 0.00 0.00 0.00 72 1003.8
20260509204522 60 360 1.7 7.0 0.00 0.00 0.00 71 1003.9
20260509203030 60 360 1.7 8.7 0.00 0.00 0.00 70 1004.2
20260509201520 61 360 3.5 7.8 0.00 0.00 0.00 69 1004.2
20260509200016 60 135 2.6 7.0 0.00 0.00 0.00 72 1004.5
20260509194517 60 360 2.6 7.8 0.00 0.00 0.00 72 1004.7
20260509193013 60 360 1.7 7.0 0.00 0.00 0.00 72 1004.8
20260509191509 60 114 1.7 5.2 0.00 0.00 0.00 71 1005.0
20260509190016 59 360 1.7 8.7 0.00 0.00 0.00 73 1005.2
20260509184507 57 360 2.6 8.7 0.00 0.00 0.00 74 1005.7
20260509183100 57 153 3.5 8.7 0.00 0.00 0.00 74 1005.5
20260509181556 56 115 2.6 7.0 0.00 0.00 0.00 74 1006.1
20260509180101 55 108 1.7 7.8 0.00 0.00 0.00 77 1006.1
20260509174554 55 360 2.6 9.6 0.00 0.00 0.00 76 1006.3
20260509173056 54 199 1.7 7.8 0.00 0.00 0.00 78 1006.5
20260509171549 54 179 2.6 5.2 0.00 0.00 0.00 77 1006.5
20260509170058 54 164 1.7 7.0 0.00 0.00 0.00 76 1006.4
20260509164544 53 148 2.6 7.0 0.00 0.00 0.00 77 1006.4
20260509163055 52 147 3.5 7.0 0.00 0.00 0.00 76 1006.7
20260509161551 51 138 2.6 7.8 0.00 0.00 0.00 77 1007.1
20260509160038 51 173 3.5 7.8 0.00 0.00 0.00 76 1007.5
20260509154538 52 360 1.7 7.0 0.00 0.00 0.00 76 1007.5
20260509153035 50 107 2.6 7.0 0.00 0.00 0.00 77 1007.5
20260509151530 50 172 2.6 5.2 0.00 0.00 0.00 76 1007.9
20260509150029 50 154 1.7 6.1 0.00 0.00 0.00 77 1008.0
20260509144527 50 163 1.7 6.1 0.00 0.00 0.00 75 1008.1
20260509143033 50 150 0.9 8.7 0.00 0.00 0.00 75 1008.2
20260509141527 49 360 1.7 7.8 0.00 0.00 0.00 76 1008.3
20260509140022 48 360 0.9 6.1 0.00 0.00 0.00 76 1008.3
20260509134521 47 161 2.6 8.7 0.00 0.00 0.00 76 1008.4
20260509133017 47 103 1.7 7.0 0.00 0.00 0.00 77 1008.3
20260509131513 45 152 3.5 8.7 0.00 0.00 0.00 77 1008.5
20260509130012 45 130 2.6 7.0 0.00 0.00 0.00 79 1008.6
20260509124511 45 150 2.6 7.0 0.00 0.00 0.00 79 1008.6
20260509123011 45 164 0.9 3.5 0.00 0.00 0.00 78 1008.8
20260509121509 45 172 0.9 3.5 0.00 0.00 0.00 78 1009.0
20260509120009 44 140 1.7 5.2 0.00 0.00 0.00 79 1009.0
20260509114521 44 360 1.7 5.2 0.00 0.00 0.00 79 1009.0
20260509113007 45 360 1.7 7.0 0.00 0.00 0.00 78 1009.0
20260509111506 45 144 0.9 6.1 0.00 0.00 0.00 79 1008.9
20260509110003 44 165 1.7 4.3 0.00 0.00 0.00 79 1008.6
20260509104502 43 87 1.7 6.1 0.00 0.00 0.00 81 1008.6
20260509103100 43 165 0.9 3.5 0.00 0.00 0.00 81 1008.5
20260509101559 42 138 0.0 3.5 0.00 0.00 0.00 82 1008.5
20260509100058 42 148 0.9 3.5 0.00 0.00 0.00 81 1008.4